Total_Precipitation_Accumulation
1.77 1.77 2.51 2.38 2.17 2.06 1.92 1.87 1.72 1.58 1.49 1.36 1.25 1.10 1.03 0.99 0.94 0.90 0.83 0.76 0.75 0.79 0.84 1.03 1.14 0.97 0.91 0.90 0.88 0.88 0.94 1.08 1.02 0.89 0.86 0.91 0.93 1.14 1.29 1.39 1.51 1.49 1.43
1.35 1.70 2.55 2.45 2.26 2.08 1.93 1.88 1.68 1.46 1.29 1.16 1.12 1.04 0.98 0.92 0.93 0.84 0.75 0.74 0.75 0.74 0.79 0.97 1.09 1.02 1.01 1.01 1.05 1.08 1.12 1.12 1.04 0.96 1.05 1.11 1.14 1.26 1.30 1.39 1.68 1.65 1.40
1.23 1.46 1.99 2.52 2.33 2.12 1.98 1.88 1.73 1.50 1.19 1.03 1.02 1.01 0.91 0.84 0.82 0.80 0.78 0.72 0.70 0.68 0.69 0.81 0.97 0.98 1.00 1.03 1.13 1.16 1.19 1.15 1.07 1.17 1.60 2.09 1.69 1.45 1.30 1.38 1.52 1.44 1.35
1.16 1.34 1.60 2.29 2.18 2.08 1.98 1.77 1.75 1.52 1.18 1.07 1.04 0.98 0.85 0.79 0.83 0.90 0.90 0.78 0.72 0.68 0.65 0.70 0.92 0.95 0.93 0.98 1.00 1.01 1.09 1.13 1.15 1.45 1.99 2.46 2.23 1.76 1.55 1.44 1.41 1.38 1.36
1.18 1.36 1.93 2.33 2.01 1.92 1.78 1.65 1.70 1.58 1.33 1.18 1.06 0.97 0.90 0.85 0.82 0.89 0.85 0.82 0.80 0.76 0.78 0.85 1.01 0.98 0.90 0.88 0.90 0.96 1.08 1.29 1.46 1.50 1.85 2.17 2.36 2.07 1.67 1.47 1.43 1.43 1.50
1.18 1.34 1.79 2.01 1.80 1.72 1.65 1.56 1.52 1.58 1.56 1.32 1.12 1.03 1.00 0.94 0.94 0.95 0.94 0.86 0.90 0.91 0.95 0.97 0.99 0.99 0.97 0.93 0.94 1.02 1.19 1.42 1.44 1.50 1.85 2.08 2.16 1.96 1.60 1.48 1.54 1.65 1.77
1.03 1.15 1.48 1.75 1.61 1.55 1.51 1.49 1.41 1.51 1.59 1.43 1.14 1.13 1.13 1.07 1.06 1.06 1.06 0.96 1.00 0.97 0.97 1.01 0.94 0.98 0.99 0.97 1.01 1.10 1.24 1.30 1.23 1.47 1.86 2.16 1.99 1.76 1.63 1.51 1.51 1.75 1.98
1.08 1.05 1.20 1.49 1.51 1.41 1.44 1.54 1.43 1.41 1.50 1.41 1.23 1.19 1.11 1.10 1.13 1.15 1.07 1.03 1.02 1.02 1.05 1.07 1.03 1.00 0.95 0.96 1.08 1.23 1.31 1.19 0.98 1.14 1.42 1.99 2.29 2.07 1.68 1.45 1.49 1.64 1.87
1.40 1.28 1.13 1.14 1.25 1.29 1.37 1.49 1.45 1.38 1.35 1.28 1.29 1.25 1.22 1.19 1.13 1.07 1.03 1.04 1.04 1.05 1.10 1.13 1.06 1.02 1.00 1.02 1.06 1.16 1.26 1.22 1.10 1.13 1.16 1.80 2.31 2.20 1.75 1.48 1.44 1.64 1.75
1.47 1.34 1.13 1.01 1.02 1.11 1.09 1.24 1.46 1.49 1.38 1.26 1.27 1.28 1.27 1.20 1.09 1.02 0.94 1.00 1.08 1.09 1.18 1.20 1.12 1.10 1.10 1.05 1.06 1.15 1.22 1.12 0.94 0.96 1.19 1.69 2.32 2.36 2.06 1.56 1.35 1.36 1.44
1.22 1.15 1.07 1.01 1.04 1.13 1.17 1.16 1.41 1.51 1.39 1.18 1.09 1.16 1.15 0.97 0.95 0.97 0.94 1.15 1.15 1.24 1.31 1.31 1.26 1.22 1.12 1.08 1.16 1.26 1.12 0.89 0.97 1.01 1.31 1.84 2.24 2.30 2.16 1.77 1.41 1.26 1.24
0.95 0.86 0.82 0.83 0.93 1.03 1.09 1.42 1.64 1.45 1.35 1.06 1.06 0.97 0.99 1.05 1.13 0.96 1.00 1.32 1.33 1.38 1.38 1.40 1.37 1.25 1.02 0.86 1.02 1.12 0.96 0.92 0.97 0.99 1.30 1.87 2.16 2.19 2.02 1.79 1.51 1.35 1.31
0.72 0.65 0.60 0.56 0.59 0.66 0.86 1.21 1.49 1.62 1.60 1.51 1.29 1.06 1.04 0.91 0.81 0.77 0.82 0.99 1.09 1.21 1.20 1.21 1.19 1.02 0.91 0.88 0.87 0.88 1.00 0.97 1.05 1.07 1.35 1.83 2.08 2.16 2.01 1.81 1.57 1.45 1.43
0.68 0.64 0.55 0.53 0.48 0.50 0.57 0.75 0.94 1.11 1.20 1.22 1.10 0.96 1.05 0.93 0.82 0.83 0.83 0.84 0.87 1.01 1.16 1.17 1.14 1.01 0.90 0.81 0.78 0.87 0.94 0.92 1.05 1.27 1.51 1.59 1.83 2.13 2.15 1.96 1.75 1.61 1.58
0.80 0.80 0.69 0.57 0.52 0.50 0.54 0.60 0.66 0.83 0.92 0.94 0.97 0.90 0.95 0.97 0.95 0.91 0.83 0.85 0.79 0.90 1.07 1.17 1.13 1.02 1.00 0.94 0.86 0.96 1.02 1.11 1.14 1.19 1.31 1.39 1.64 2.05 2.37 2.36 2.08 1.82 1.73
0.86 0.84 0.81 0.68 0.63 0.59 0.54 0.56 0.59 0.68 0.77 0.80 0.78 0.77 0.87 0.97 0.98 0.96 0.93 0.96 0.93 0.97 1.12 1.14 1.06 1.10 1.16 1.05 0.87 0.88 1.00 1.08 1.14 1.15 1.19 1.34 1.48 1.66 2.18 2.48 2.39 2.17 2.11
0.84 0.80 0.79 0.77 0.76 0.73 0.67 0.63 0.62 0.68 0.77 0.78 0.75 0.70 0.71 0.80 0.86 0.90 0.94 0.95 0.99 1.09 1.16 1.21 1.06 1.10 1.08 0.99 0.93 0.89 0.91 0.95 1.00 1.05 1.02 1.08 1.21 1.39 1.78 2.21 2.51 2.49 2.52
0.70 0.69 0.73 0.72 0.73 0.77 0.76 0.76 0.79 0.77 0.83 0.79 0.77 0.71 0.67 0.72 0.80 0.94 0.97 0.94 0.97 1.12 1.24 1.30 1.22 1.20 1.16 1.11 1.09 1.02 0.93 0.99 0.94 0.99 1.02 1.00 1.18 1.15 1.38 1.68 1.97 2.20 2.48
0.61 0.62 0.63 0.65 0.64 0.71 0.77 0.79 0.90 0.91 0.91 0.87 0.85 0.77 0.74 0.80 0.88 1.07 1.19 1.19 1.18 1.21 1.22 1.19 1.27 1.28 1.27 1.27 1.19 1.14 1.06 1.04 1.08 0.99 1.03 1.09 1.07 1.11 1.23 1.26 1.37 1.47 1.88
0.57 0.56 0.55 0.60 0.61 0.65 0.77 0.87 1.02 1.14 1.09 1.10 1.03 0.92 0.93 1.08 1.23 1.39 1.39 1.47 1.55 1.45 1.42 1.38 1.41 1.37 1.30 1.35 1.24 1.13 1.08 1.02 1.12 1.16 1.16 1.17 1.14 1.08 1.26 1.37 1.34 1.14 1.36
0.49 0.52 0.51 0.51 0.59 0.63 0.67 0.80 1.01 1.28 1.39 1.47 1.41 1.23 1.18 1.30 1.55 1.78 1.74 1.81 1.88 1.79 1.77 1.79 2.00 1.95 1.67 1.43 1.50 1.35 1.18 1.08 1.23 1.29 1.24 1.28 1.33 1.39 1.49 1.49 1.38 1.22 1.07
0.38 0.45 0.47 0.47 0.55 0.60 0.65 0.81 0.97 1.11 1.11 1.28 1.43 1.41 1.32 1.31 1.47 1.61 1.87 1.99 1.96 2.04 2.17 2.17 2.54 2.67 2.21 1.77 1.80 1.99 1.73 1.55 1.33 1.20 1.23 1.25 1.40 1.61 1.66 1.51 1.38 1.22 1.10
0.30 0.31 0.33 0.37 0.45 0.57 0.70 0.91 1.11 1.29 1.38 1.44 1.38 1.46 1.47 1.39 1.44 1.56 1.70 1.86 1.89 1.99 2.12 2.26 2.60 3.11 2.88 2.27 2.03 2.36 2.11 1.88 1.73 1.40 1.19 1.20 1.36 1.63 1.86 1.79 1.58 1.40 1.23
0.27 0.25 0.26 0.34 0.48 0.67 0.88 1.10 1.33 1.53 1.57 1.46 1.52 1.55 1.44 1.36 1.33 1.41 1.54 1.68 1.81 1.85 1.99 2.10 2.23 2.76 3.14 2.83 2.51 2.18 1.86 1.79 1.92 1.77 1.38 1.29 1.35 1.45 1.62 1.68 1.61 1.57 1.42
0.30 0.31 0.36 0.54 0.78 1.03 1.25 1.50 1.76 1.74 1.63 1.53 1.54 1.52 1.46 1.47 1.43 1.42 1.57 1.64 1.66 1.73 1.83 2.17 2.44 2.72 2.95 2.93 2.86 2.65 2.37 2.09 1.75 1.89 1.84 1.59 1.46 1.38 1.42 1.52 1.51 1.53 1.53
0.58 0.72 0.90 1.16 1.34 1.45 1.56 1.71 1.82 1.77 1.77 1.71 1.54 1.45 1.43 1.49 1.55 1.59 1.63 1.64 1.61 1.65 1.76 1.99 2.28 2.49 2.82 3.01 2.92 2.71 2.58 2.45 2.23 2.10 1.89 1.76 1.72 1.55 1.44 1.44 1.38 1.40 1.51